Miscellaneous Local Product
Issued by NWS North Platte, NE

Home | Current Version | Previous Version | Text Only | Print | Product List | Glossary On
Versions: 1 2 3 4 5 6 7 8 9 10 11 12 13 14 15 16 17 18 19 20 21 22 23 24 25 26 27 28 29 30 31 32 33 34 35 36 37 38 39 40 41 42 43 44 45 46 47 48 49 50
044
AXUS43 KLBF 250410
MISLBF


WESTERN AND NORTH CENTRAL NEBRASKA HOURLY WEATHER ROUNDUP
NATIONAL WEATHER SERVICE NORTH PLATTE NE
1100 PM CDT SUN JUL 24 2016

NOTE: "FAIR" INDICATES FEW OR NO CLOUDS BELOW 12,000 FEET WITH NO
SIGNIFICANT WEATHER AND/OR OBSTRUCTIONS TO VISIBILITY.

NOTE: STATIONS NOT REPORTING VARIABLES SUCH AS SKY/WEATHER OR
PRESSURE ARE PROVIDED BY RAWS AND APRS NETWORKS AND ARE NOT UNDER
NATIONAL WEATHER SERVICE QUALITY CONTROL.

...OBSERVATIONS IN AND NEAR THE EASTERN PANHANDLE OF NEBRASKA...

CITY           SKY/WX    TMP DP  RH WIND       PRES   REMARKS
PINE RIDGE     CLEAR     73  50  44 E6        30.14R
CHADRON        CLEAR     76  51  41 SE15      30.11R
ALLIANCE       CLEAR     67  55  65 SE10      30.17R
SIDNEY         CLOUDY    62  55  77 SE5       30.22R
CRESCENT LAKE    N/A     68  57  68 E7          N/A
$$

...OBSERVATIONS IN NORTHERN NEBRASKA AND FAR SOUTHERN SOUTH DAKOTA...

CITY           SKY/WX    TMP DP  RH WIND       PRES   REMARKS
WINNER         FAIR      70  53  54 SE9       30.11S
VALENTINE      PTCLDY    71  55  56 E8        30.13R
THEDFORD       CLOUDY    73  60  63 S7        30.16S
AINSWORTH      PTCLDY    67  60  78 SE6       30.15S
O`NEILL        PTCLDY    72  58  62 SE3       30.14S
ORD            MOCLDY    68  63  84 CALM      30.11R
BROKEN BOW     PTCLDY    66  64  93 CALM      30.14R
VALENTINE NWR    N/A     72  56  56 SE3         N/A
BUTTE            N/A     71  59  66 SE3         N/A
HALSEY           N/A     72  58  60 S3          N/A
EWING            N/A     67  62  84 CALM        N/A
$$

...OBSERVATIONS IN SOUTHWEST NEBRASKA AND FAR NORTHEAST COLORADO...

CITY           SKY/WX    TMP DP  RH WIND       PRES   REMARKS
HOLYOKE        FAIR      73  55  53 W21G36    30.11F
IMPERIAL       CLOUDY    71  58  63 SW14G28   30.15F
OGALLALA       CLOUDY    74  59  59 E13       30.15S
NORTH PLATTE   CLOUDY    70  63  78 NE7       30.15R
MCCOOK         CLOUDY    73  62  68 CALM      30.15R
LEXINGTON      CLOUDY    70  64  81 NE3       30.14R
STAPLETON        N/A     70  63  78 CALM        N/A
GOTHENBURG       N/A     72  60  65 CALM        N/A
CALLAWAY         N/A     68  63  83 E3          N/A
$$

...OBSERVATIONS IN CENTRAL LINCOLN COUNTY AREA...

CITY           SKY/WX    TMP DP  RH WIND       PRES   REMARKS
N.P. AIRPORT   CLOUDY    70  63  78 NE7       30.15R
N.P. DOWNTOWN    N/A     73  63  70 CALM        N/A
N.P. SOUTHEAST   N/A     73  63  71 CALM        N/A
N.P. HILLCREST   N/A     72  63  72 E8          N/A
$$

...SOME OBSERVATIONS FROM AROUND THE REGION...

CITY           SKY/WX    TMP DP  RH WIND       PRES   REMARKS
DENVER         CLOUDY    65  56  72 SE25G36   30.27R
LARAMIE        CLEAR     60  54  80 SE21G31   30.31R
CHEYENNE       CLEAR     60  54  80 S12       30.31R
SCOTTSBLUFF    CLEAR     66  56  70 SE6       30.18R
RAPID CITY     CLEAR     69  50  50 S6        30.11R
BISMARCK       CLEAR     65  61  87 SE7       30.04R
PIERRE         CLEAR     66  51  58 E3        30.06R
SIOUX FALLS    PTCLDY    68  63  84 SW3       30.08R
OMAHA          PTCLDY    72  67  84 N7        30.04R
GRAND ISLAND   MOCLDY    71  63  75 NE3       30.11R
KANSAS CITY    CLOUDY    81  69  67 E8        30.02R
WICHITA        PTCLDY    88  70  55 SE8       29.96R HX  93
OKLAHOMA CITY  CLEAR     84  72  67 S5        29.97R
DALLAS         PTCLDY    90  69  50 SE10      29.93R HX  94
AMARILLO       MOCLDY    83  57  41 SE13      30.10R
DODGE CITY     CLOUDY    82  69  64 NE14      30.04R
HAYS           MOCLDY    73  59  60 NE14      30.05S
GOODLAND       TSTM      65  63  93 NW17      30.29R
$$




USA.gov is the U.S. government's official web portal to all federal, state and local government web resources and services.